TimePST,TemperatureF,Dew PointF,Humidity,Sea Level PressureIn,VisibilityMPH,Wind Direction,Wind SpeedMPH,Gust SpeedMPH,PrecipitationIn,Events,Conditions,WindDirDegrees,DateUTC
12:00 AM,8.6,5.0,85,29.89,0.2,Calm,Calm,-,N/A,Fog,Light Freezing Fog,0,2012-12-27 08:00:00
12:22 AM,5.0,-0.4,78,29.90,1.5,WSW,4.6,-,N/A,,Haze,240,2012-12-27 08:22:00
12:26 AM,3.2,-0.4,85,29.90,3.0,WSW,3.5,-,N/A,,Mist,240,2012-12-27 08:26:00
12:44 AM,5.0,-0.4,78,29.91,10.0,WSW,3.5,-,N/A,,Partly Cloudy,250,2012-12-27 08:44:00
12:53 AM,5.0,-0.0,80,30.05,10.0,WSW,5.8,-,N/A,,Clear,250,2012-12-27 08:53:00
1:53 AM,3.0,-0.9,84,30.07,10.0,WNW,4.6,-,N/A,,Clear,290,2012-12-27 09:53:00
2:05 AM,3.2,-0.4,85,29.93,6.0,Calm,Calm,-,N/A,,Partly Cloudy,0,2012-12-27 10:05:00
2:53 AM,1.9,-2.0,83,30.09,2.0,Calm,Calm,-,N/A,,Clear,0,2012-12-27 10:53:00
2:59 AM,1.4,-4.0,78,29.94,1.2,Calm,Calm,-,N/A,,Haze,0,2012-12-27 10:59:00
3:09 AM,1.4,-2.2,85,29.94,1.5,Calm,Calm,-,N/A,,Haze,0,2012-12-27 11:09:00
3:20 AM,1.4,-2.2,85,29.95,2.0,NE,5.8,-,N/A,,Scattered Clouds,40,2012-12-27 11:20:00
3:24 AM,3.2,-0.4,85,29.95,1.8,NE,4.6,-,N/A,,Mostly Cloudy,50,2012-12-27 11:24:00
3:38 AM,3.2,-0.4,85,29.95,0.8,NNE,3.5,-,N/A,,Mist,30,2012-12-27 11:38:00
3:53 AM,1.9,-2.0,83,30.11,0.2,North,3.5,-,N/A,Fog,Light Freezing Fog,10,2012-12-27 11:53:00
4:09 AM,1.4,-0.4,92,29.96,0.5,North,3.5,-,N/A,Fog,Light Freezing Fog,10,2012-12-27 12:09:00
4:20 AM,3.2,1.4,92,29.96,1.5,Calm,Calm,-,0.00,Snow,Light Snow,0,2012-12-27 12:20:00
4:24 AM,5.0,-0.4,78,29.96,3.0,NNE,4.6,-,0.00,Snow,Light Snow,30,2012-12-27 12:24:00
4:53 AM,8.1,3.9,83,30.11,10.0,NE,3.5,-,0.00,,Overcast,50,2012-12-27 12:53:00
5:16 AM,8.6,3.2,79,29.97,8.0,Calm,Calm,-,0.00,Snow,Light Snow,0,2012-12-27 13:16:00
5:53 AM,9.0,3.9,80,30.13,10.0,NNE,3.5,-,0.00,,Overcast,30,2012-12-27 13:53:00
6:09 AM,8.6,3.2,79,29.98,8.0,Calm,Calm,-,0.00,Snow,Light Snow,0,2012-12-27 14:09:00
6:18 AM,6.8,1.4,79,29.99,1.2,NE,3.5,-,0.00,,Haze,40,2012-12-27 14:18:00
6:26 AM,6.8,1.4,79,29.99,0.5,Calm,Calm,-,0.00,Fog,Light Freezing Fog,0,2012-12-27 14:26:00
6:53 AM,3.0,-0.0,87,30.18,0.2,Calm,Calm,-,0.00,Fog,Light Freezing Fog,0,2012-12-27 14:53:00
7:53 AM,1.9,-2.0,83,30.20,0.2,Calm,Calm,-,N/A,Fog,Light Freezing Fog,0,2012-12-27 15:53:00
8:53 AM,9.0,5.0,84,30.19,0.5,Calm,Calm,-,N/A,Fog,Light Freezing Fog,0,2012-12-27 16:53:00
8:58 AM,8.6,5.0,85,30.04,1.8,Calm,Calm,-,N/A,,Overcast,0,2012-12-27 16:58:00
9:05 AM,8.6,5.0,85,30.03,0.8,Calm,Calm,-,N/A,,Overcast,0,2012-12-27 17:05:00
9:16 AM,10.4,6.8,85,30.04,1.0,Calm,Calm,-,N/A,,Overcast,0,2012-12-27 17:16:00
9:19 AM,10.4,8.6,92,30.04,2.0,Calm,Calm,-,N/A,,Overcast,0,2012-12-27 17:19:00
9:27 AM,12.2,8.6,85,30.05,10.0,NNE,3.5,-,N/A,,Overcast,20,2012-12-27 17:27:00
9:53 AM,15.1,9.0,77,30.20,10.0,North,5.8,-,N/A,,Scattered Clouds,360,2012-12-27 17:53:00
10:53 AM,18.0,12.9,81,30.21,10.0,Calm,Calm,-,N/A,,Clear,0,2012-12-27 18:53:00
11:53 AM,18.0,15.1,88,30.21,10.0,Calm,Calm,-,N/A,,Partly Cloudy,0,2012-12-27 19:53:00
12:53 PM,21.9,17.1,82,30.20,10.0,Calm,Calm,-,N/A,,Overcast,0,2012-12-27 20:53:00
1:53 PM,24.1,19.0,81,30.20,10.0,Calm,Calm,-,N/A,,Overcast,0,2012-12-27 21:53:00
2:53 PM,25.0,19.9,81,30.22,10.0,NNE,3.5,-,N/A,,Overcast,20,2012-12-27 22:53:00
3:53 PM,25.0,21.0,85,30.23,10.0,ESE,3.5,-,N/A,,Overcast,110,2012-12-27 23:53:00
4:53 PM,24.1,19.9,84,30.23,10.0,Calm,Calm,-,N/A,,Overcast,0,2012-12-28 00:53:00
5:53 PM,24.1,19.9,84,30.23,10.0,NE,4.6,-,N/A,,Overcast,50,2012-12-28 01:53:00
6:53 PM,23.0,19.9,88,30.26,10.0,Calm,Calm,-,N/A,,Overcast,0,2012-12-28 02:53:00
7:53 PM,21.9,19.0,89,30.28,10.0,Calm,Calm,-,N/A,,Overcast,0,2012-12-28 03:53:00
8:30 PM,12.2,12.2,100,30.11,1.2,Variable,4.6,-,N/A,,Partly Cloudy,0,2012-12-28 04:30:00
8:32 PM,10.4,10.4,100,30.11,0.8,SSE,3.5,-,N/A,,Partly Cloudy,150,2012-12-28 04:32:00
8:43 PM,10.4,8.6,92,30.11,1.0,SW,4.6,-,N/A,,Mist,230,2012-12-28 04:43:00
8:45 PM,10.4,8.6,92,30.11,1.8,WSW,3.5,-,N/A,,Partly Cloudy,250,2012-12-28 04:45:00
8:47 PM,10.4,8.6,92,30.11,3.0,West,4.6,-,N/A,,Partly Cloudy,260,2012-12-28 04:47:00
8:53 PM,10.9,9.0,92,30.29,9.0,NW,4.6,-,N/A,,Partly Cloudy,310,2012-12-28 04:53:00
9:53 PM,7.0,5.0,92,30.29,10.0,NNW,6.9,-,N/A,,Clear,330,2012-12-28 05:53:00
10:42 PM,1.4,-0.4,92,30.13,2.0,East,6.9,-,N/A,,Scattered Clouds,100,2012-12-28 06:42:00
10:44 PM,1.4,-0.4,92,30.13,1.2,East,6.9,-,N/A,,Scattered Clouds,100,2012-12-28 06:44:00
10:46 PM,1.4,-0.4,92,30.13,0.8,East,3.5,-,N/A,,Mist,90,2012-12-28 06:46:00
10:53 PM,1.0,-0.0,95,30.32,0.2,SE,3.5,-,N/A,Fog,Light Freezing Fog,130,2012-12-28 06:53:00
11:53 PM,1.0,-2.0,87,30.33,0.5,NNW,6.9,-,N/A,Fog,Light Freezing Fog,340,2012-12-28 07:53:00